User: anonymous   Login
Location: STAR School
(35.3054°N, 111.2976°W)
Time: 18:52:58
(UTC-07:00)
Language:

Vanguard 1 - Orbit

View from above orbital plane
View from above orbital plane
View from above satellite
View from above satellite

Ground track
Ground track

The orbit data is extracted from the following two-line orbital elements,

1     5U 58002B   19139.98488406 -.00000072  00000-0 -74329-4 0  9990
2     5  34.2478   3.2847 1842896  17.3716 348.2247 10.84765612162517
Epoch (UTC): 19 May 2019 23:38:13
Eccentricity: 0.1842896
inclination: 34.2478°
perigee height: 653 km
apogee height: 3830 km
right ascension of ascending node: 3.2847°
argument of perigee: 17.3716°
revolutions per day: 10.84765612
mean anomaly at epoch: 348.2247°
orbit number at epoch: 16251

The dashed part of the orbit path shows where the satellite is in the earth's shadow,  

DLR